Flag for Australia Weather past 2 weeks in Cobar, New South Wales, Australia

Now
51 °F

Cool.


Feels Like: 51 °F
Forecast: 45 / 64 °F
Wind: No wind

Location: Cobar Airport Aws

Current Time: Jul 26, 2014 at 12:33:11 AM

Latest Report: Jul 26, 2014 at 12:00 AM


Visibility: N/A

Pressure: 30.20 "Hg

Humidity: 64%

Dew point: 39 °F

Location of CobarLocation

Historic Weather in Cobar — Graph

°F

Cobar temperature yesterday

Maximum temperature yesterday: 71 °F (at 3:00 PM)
Minimum temperature yesterday: 45 °F (at 7:00 AM)
Average temperature yesterday: 58 °F

Past Weeks' High & Low Weather Summary

 TemperatureHumidityPressure
High72 °F (Jul 24, 4:00 PM)99% (Jul 16, 5:00 AM)30.44 "Hg (Jul 16, 5:00 AM)
Low25 °F (Jul 14, 5:00 AM)23% (Jul 24, 4:00 PM)29.95 "Hg (Jul 24, 3:00 PM)
Average49 °F64%30.20 "Hg
* Reported Jul 10 11:00 PM — Jul 25 11:00 PM, Cobar, Weather by CustomWeather, © 2014

Note: Actual official high and low records may vary slightly from our data, if they occured in-between our weather recording intervals... More about our weather records

Advertising

Cobar weather history for previous 24 hours

 ConditionsComfort  
Time TempWeatherWind HumidityBarometerVisibility
11:00 PM
Jul 25
51 °FCool.No wind63%30.20 "HgN/A
10:00 PM51 °FCool.2 mph62%30.21 "HgN/A
9:00 PM51 °FCool.1 mph61%30.20 "HgN/A
8:00 PM54 °FCool.No wind56%30.19 "HgN/A
7:00 PM57 °FRefreshingly cool.1 mph50%30.17 "HgN/A
6:00 PM64 °FMild.3 mph38%30.14 "HgN/A
5:00 PM68 °FMild.7 mph34%30.12 "HgN/A
4:00 PM70 °FMild.8 mph30%30.10 "HgN/A
3:00 PM71 °FMild.10 mph30%30.09 "HgN/A
2:00 PM69 °FMild.7 mph32%30.11 "HgN/A
1:00 PM68 °FMild.8 mph32%30.12 "HgN/A
12:00 PM66 °FMild.2 mph37%30.16 "HgN/A
11:00 AM63 °FMild.3 mph41%30.17 "HgN/A
10:00 AM57 °FRefreshingly cool.6 mph51%30.19 "HgN/A
9:00 AM55 °FRefreshingly cool.No wind56%30.17 "HgN/A
8:00 AM47 °FCool.No wind73%30.16 "HgN/A
7:00 AM45 °FCool.No wind70%30.12 "HgN/A
6:00 AM49 °FCool.6 mph62%30.09 "HgN/A
5:00 AM53 °FCool.6 mph58%30.06 "HgN/A
4:00 AM52 °FCool.3 mph68%30.06 "HgN/A
3:00 AM53 °FCool.3 mph56%30.06 "HgN/A
2:00 AM53 °FCool.3 mph57%30.06 "HgN/A
1:00 AM56 °FRefreshingly cool.7 mph45%30.05 "HgN/A
12:00 AM57 °FRefreshingly cool.7 mph43%30.06 "HgN/A
Weather by CustomWeather, © 2014

See weather overviewHow to use our weather pages